Home > Weather > Hay River > Past weeks

Flag for Canada Past Weather in Hay River, Northwest Territories, Canada — Yesterday and Last 2 Weeks

Now
72 °F

Broken clouds.


Feels Like: 75 °F
Forecast: 51 / 66 °F
Wind: 6 mph from Northwest

Location: Hay River

Current Time: Jun 27, 2016 at 12:41:18 PM

Latest Report: Jun 27, 2016 at 12:00 PM


Visibility: 15 mi

Pressure: 30.06 "Hg

Humidity: 65%

Dew Point: 59 °F

Location of Hay RiverLocation

Past Weather in Hay River — Graph

°F

Hay River Temperature Yesterday

Maximum temperature yesterday: 77 °F (at 12:00 PM)
Minimum temperature yesterday: 57 °F (at 12:00 AM)
Average temperature yesterday: 67 °F

High & Low Weather Summary for the Past Weeks

 TemperatureHumidityPressure
High88 °F (Jun 21, 2:00 PM)100% (Jun 13, 1:00 AM)30.07 "Hg (Jun 13, 1:00 AM)
Low37 °F (Jun 18, 3:00 AM)21% (Jun 21, 3:00 PM)29.48 "Hg (Jun 15, 4:03 PM)
Average58 °F74%29.79 "Hg
* Reported Jun 12 11:00 AM — Jun 27 11:00 AM, Hay River, Weather by CustomWeather, © 2016

Note: Actual official high and low records may vary slightly from our data, if they occured in-between our weather recording intervals... More about our weather records

Advertising

Hay River Weather History for the Previous 24 Hours

Scroll right to see more
 ConditionsComfort  
Time TempWeatherWind HumidityBarometerVisibility
11:00 AM
Mon, Jun 27
70 °FScattered clouds.5 mph60%30.06 "Hg15 mi
10:00 AM68 °FBroken clouds.7 mph69%30.07 "Hg15 mi
9:00 AM64 °FBroken clouds.8 mph78%30.07 "Hg15 mi
8:00 AM61 °FBroken clouds.6 mph83%30.07 "Hg15 mi
7:00 AM61 °FBroken clouds.7 mph77%30.07 "Hg15 mi
6:00 AM59 °FBroken clouds.6 mph88%30.05 "Hg15 mi
5:00 AM55 °FPartly cloudy.6 mph94%30.04 "Hg15 mi
4:00 AM55 °FPartly cloudy.No wind94%30.02 "Hg15 mi
3:00 AM55 °FPartly cloudy.No wind88%30.03 "Hg15 mi
2:00 AM55 °FPartly cloudy.5 mph94%30.04 "Hg15 mi
1:00 AM55 °FPassing clouds.No wind100%30.03 "Hg15 mi
12:00 AM59 °FPartly sunny.3 mph82%30.02 "Hg15 mi
11:00 PM
Sun, Jun 26
59 °FPartly sunny.6 mph82%30.01 "Hg15 mi
10:00 PM63 °FPartly sunny.6 mph83%29.99 "Hg15 mi
9:00 PM66 °FBroken clouds.5 mph73%29.98 "Hg15 mi
8:00 PM66 °FBroken clouds.9 mph68%29.97 "Hg15 mi
7:00 PM66 °FThunderstorms. Partly sunny.8 mph68%29.96 "Hg15 mi
6:00 PM75 °FThunderstorms. Partly sunny.5 mph57%29.94 "Hg15 mi
5:00 PM77 °FBroken clouds.7 mph57%29.93 "Hg15 mi
4:00 PM72 °FBroken clouds.5 mph61%29.94 "Hg15 mi
3:00 PM72 °FBroken clouds.9 mph57%29.93 "Hg15 mi
2:00 PM72 °FPartly sunny.10 mph57%29.94 "Hg15 mi
1:00 PM73 °FPartly sunny.10 mph61%29.95 "Hg15 mi
12:00 PM77 °FPartly sunny.6 mph47%29.94 "Hg15 mi
Weather by CustomWeather, © 2016

See weather overviewHow to use our weather pages